This is the latest recevied weather packets stored in our database for station/object KC8BSD. If no packets are shown the sender has not sent any weather packets the latest 1 day(s).
| Time | Temp. | Humidity | Pressure | Rain* | Wind** | Luminosity | Snow |
|---|---|---|---|---|---|---|---|
| 1778081691 | 11.11° C | 52% | 1014 hPa | 0 mm | - | 265 W/m² | - |
| 1778078360 | 11.67° C | 57% | 1013.9 hPa | 0 mm | - | 449 W/m² | - |
| 1778076243 | 10.56° C | 62% | 1013.4 hPa | 0 mm | - | 369 W/m² | - |
| 1778075940 | 10° C | 63% | 1013.4 hPa | 0 mm | - | 446 W/m² | - |
| 1778075029 | 9.44° C | 66% | 1013.2 hPa | 0 mm | - | 379 W/m² | - |
| 1778074423 | 10° C | 65% | 1013.1 hPa | 0 mm | - | 432 W/m² | - |
| 1778073515 | 10° C | 66% | 1012.7 hPa | 0 mm | - | 242 W/m² | - |
| 1778071699 | 8.89° C | 62% | 1012.6 hPa | 0 mm | - | 264 W/m² | - |
| 1778069277 | 7.78° C | 64% | 1012 hPa | 0 mm | - | 123 W/m² | - |
| 1778068975 | 7.22° C | 67% | 1012 hPa | 0 mm | - | 87 W/m² | - |
| 1778068068 | 7.22° C | 64% | 1011.8 hPa | 0 mm | - | 63 W/m² | - |
| 1778067765 | 7.22° C | 64% | 1011.9 hPa | 0 mm | - | 75 W/m² | - |
| 1778067161 | 6.67° C | 65% | 1011.4 hPa | 0 mm | - | 55 W/m² | - |
| 1778066857 | 6.11° C | 67% | 1011.7 hPa | 0 mm | - | 50 W/m² | - |
| 1778065950 | 5.56° C | 68% | 1011.4 hPa | 0 mm | - | 19 W/m² | - |
| 1778064436 | 6.11° C | 66% | 1011.1 hPa | 0 mm | - | 10 W/m² | - |
| 1778064133 | 6.11° C | 65% | 1011 hPa | 0 mm | - | 6 W/m² | - |
| 1778063830 | 6.11° C | 65% | 1011.1 hPa | 0 mm | - | 4 W/m² | - |
| 1778063225 | 6.67° C | 63% | 1010.9 hPa | 0 mm | - | 1 W/m² | - |
| 1778062923 | 6.67° C | 63% | 1010.9 hPa | 0 mm | - | 0 W/m² | - |
| 1778062619 | 6.67° C | 62% | 1011.2 hPa | 0 mm | - | 0 W/m² | - |
| 1778062014 | 7.22° C | 61% | 1010.9 hPa | 0 mm | - | 0 W/m² | - |
| 1778061410 | 7.22° C | 60% | 1011 hPa | 0 mm | - | 0 W/m² | - |
| 1778060804 | 7.22° C | 60% | 1010.7 hPa | 0 mm | - | 0 W/m² | - |
| 1778060200 | 7.78° C | 60% | 1010.4 hPa | 0 mm | - | 0 W/m² | - |
* Rain latest hour (hover to see other rain measurements)
** Current wind speed in m/s (hover to see current wind gust speed)